Location: Clanezzo
(45.7500°N, 9.6000°E)
Time: 06:04:21
(UTC+00:00)

Gbstr 26 Del rocket - Pass Details

Date: 29 September 2021
Orbit: 492 x 1263 km, 51.8° (Epoch: 20 October)

Event Time Altitude Azimuth Distance (km) Brightness Sun altitude
Rises 22:44:54 0° 289° (WNW) 4,134 7.5 -46.6°
Reaches altitude 10° 22:47:44 10° 292° (WNW) 3,214 6.9 -46.7°
Enters shadow 22:48:56 15° 295° (WNW) 2,841 6.6 -46.7°
